Location: Sungai Buloh
(3.1000°N, 113.0000°E)
Time: 19:36:50
(UTC+00:00)

Longmarch 3A Rocket - Pass Details

Date: 12 January 2026
Orbit: 269 x 18664 km, 27.3° (Epoch: 10 February)

Event Time Altitude Azimuth Distance (km) Brightness Sun altitude
Exits shadow 21:45:28 - 234° (SW) 2,598 4.9 -13.0°
Reaches altitude 10° 21:46:31 10° 231° (SW) 2,162 4.5 -12.8°
Maximum altitude 21:51:03 73° 146° (SE) 1,417 4.0 -11.7°
Drops below altitude 10° 22:15:26 10° 63° (ENE) 9,996 8.8 -6.0°
Sets 22:36:10 0° 62° (ENE) 15,345 9.8 -1.2°
